Location: Poughquag
(41.6090°N, 73.6820°W)
Time: 15:24:18
(UTC-05:00)

Vanguard 1 - Pass Details

Date: 05 December 2023
Orbit: 653 x 3825 km, 34.3° (Epoch: 03 March)

Event Time Altitude Azimuth Distance (km) Brightness Sun altitude
Rises 20:52:28 0° 270° (W) 6,635 14.9 -49.2°
Reaches altitude 10° 20:56:19 10° 268° (W) 5,939 14.5 -49.9°
Enters shadow 21:15:11 67° 208° (SSW) 3,986 12.8 -53.2°
Maximum altitude 21:16:39 67° 192° (SSW) 3,990 - -53.5°
Drops below altitude 10° 21:38:59 10° 116° (ESE) 6,427 - -57.3°
Sets 21:43:23 0° 113° (ESE) 7,176 - -58.1°
